{"data":{"norad_id":44961,"epoch":"2026-09-19T23:22:48.777888Z","epoch_age_seconds":59978,"freshness":"FRESH","line1":"1 44961U 20001AZ  26262.97417567  .00085818  00000+0  43781-3 0  9996","line2":"2 44961  53.0417  54.1933 0000840 132.9874 227.1218 15.80680976371102","mean_motion":15.80680976,"eccentricity":8.4e-5,"inclination_deg":53.0417,"raan_deg":54.1933,"arg_perigee_deg":132.9874,"mean_anomaly_deg":227.1218,"bstar":0.00043781,"rev_number":37110,"period_min":91.099976647027,"perigee_km":327.95038186157,"apogee_km":329.07709918597,"semimajor_km":6706.6507405238,"source":"CELESTRAK","updated_at":"2026-09-20T09:00:38.221812Z"}}